Wind_Speed
20 20 20 20 19 18 16 16 14 14 14 14 13 12 12 12 11 11 10 10 9 9 9 9 9 8 8 7 7 6 5 5 4 4 3 3 3 3 3 3 3 3 3
23 23 22 22 21 20 19 18 17 16 15 15 15 14 14 14 13 13 12 11 11 10 10 10 9 9 9 8 8 7 7 6 5 5 4 4 4 4 4 4 4 4 4
25 25 25 24 24 23 21 21 20 19 18 17 17 16 16 15 15 15 14 13 13 12 12 11 11 10 10 9 8 8 8 7 7 6 6 5 5 5 5 5 5 5 5
27 27 27 27 26 26 25 24 23 22 20 19 18 18 18 17 17 17 16 16 15 14 13 13 12 12 11 10 9 9 9 8 8 7 7 7 7 7 6 6 6 6 6
28 29 29 29 29 28 28 27 26 25 23 22 21 20 20 19 19 19 18 18 17 16 15 14 14 13 12 11 11 10 10 9 9 9 8 8 8 8 8 8 8 7 8
30 30 31 32 31 31 30 29 28 27 26 25 24 22 21 21 20 20 20 19 18 17 17 16 15 14 13 13 12 12 11 11 10 10 9 9 9 9 8 8 9 9 9
31 32 32 33 33 33 32 32 31 30 29 28 26 25 24 22 21 21 21 21 20 19 18 17 16 15 15 14 14 13 13 12 12 11 10 10 10 10 9 9 9 10 10
32 33 34 35 35 35 34 34 33 32 31 30 29 28 26 26 24 22 22 22 21 21 20 20 19 18 17 16 16 15 15 14 13 12 12 11 11 11 11 11 11 11 11
32 33 34 36 36 36 36 35 35 35 33 32 31 30 28 28 27 25 24 24 24 23 22 21 20 20 19 18 18 17 16 15 15 14 13 13 13 12 12 12 12 13 13
32 33 34 35 37 37 37 37 36 36 35 34 33 32 31 30 29 28 27 27 26 25 24 23 22 21 21 20 19 19 18 17 17 16 16 15 15 14 14 14 14 15 15
32 34 34 34 36 37 38 37 37 37 37 36 35 34 33 32 30 29 29 28 28 27 26 26 25 24 23 22 21 20 20 19 18 18 17 17 17 17 17 16 16 16 17
31 33 35 35 36 37 38 38 38 37 37 37 37 36 35 33 32 31 31 30 29 29 28 28 27 26 25 24 23 22 22 21 21 20 20 19 19 19 19 19 19 18 19
30 32 34 35 36 37 38 39 39 38 38 38 37 37 36 35 33 32 32 32 31 31 30 29 29 28 27 26 26 25 24 24 23 23 22 22 21 21 21 21 21 21 21
28 30 33 34 35 36 38 39 39 39 38 38 38 37 37 36 35 35 34 33 32 32 32 31 30 29 29 28 28 27 26 25 25 25 24 24 23 23 23 23 23 23 23
27 29 31 33 34 35 37 38 38 38 38 38 39 38 37 37 36 35 35 34 33 33 33 32 31 30 31 30 29 29 28 27 27 26 26 25 25 25 24 24 24 24 24
26 27 30 32 34 35 37 38 39 38 38 37 37 37 37 37 37 36 36 35 35 34 33 33 33 33 32 32 31 30 29 29 29 28 28 27 27 27 26 26 26 26 26
26 26 28 30 32 34 36 37 39 39 38 38 37 36 36 37 37 37 36 36 36 36 35 33 33 34 33 33 32 32 31 31 31 30 29 30 29 29 29 28 28 28 28
24 26 27 29 31 33 34 36 38 38 38 37 37 37 36 37 37 37 38 37 37 36 36 34 34 34 34 34 33 33 32 32 33 32 32 32 32 31 31 31 30 30 30
22 24 25 27 29 32 35 36 38 38 38 38 37 37 36 36 37 37 38 38 37 36 36 36 36 35 34 34 34 34 34 33 33 33 33 33 33 33 33 33 32 32 32
23 23 25 27 29 30 33 36 38 38 39 39 38 37 36 36 36 36 37 38 37 36 35 36 36 35 35 34 34 34 34 34 34 34 33 33 33 34 34 34 34 34 34
23 23 25 26 29 30 32 33 35 37 38 39 39 37 36 36 37 36 36 36 36 36 34 34 35 35 35 35 35 35 34 34 34 34 34 33 34 34 34 35 35 35 35
21 23 24 26 28 29 30 31 33 35 36 38 39 38 37 36 36 36 35 36 36 36 36 35 34 34 35 36 37 36 36 35 36 35 35 35 35 35 36 36 36 36 36
21 22 23 25 27 28 28 31 32 33 34 35 36 37 35 34 34 34 34 35 35 35 36 36 35 34 35 37 37 37 37 37 37 37 37 38 38 38 39 39 39 39 39
19 21 22 23 25 27 28 28 29 31 32 33 35 35 33 33 32 33 33 33 33 33 35 35 36 36 36 37 38 39 39 38 38 38 38 39 40 40 40 41 41 41 42
19 20 20 21 24 26 28 28 29 30 31 33 34 34 32 31 32 33 33 33 33 33 34 34 35 36 36 37 38 39 39 39 40 40 39 40 40 41 42 42 43 43 44
17 18 20 20 22 25 27 28 29 30 31 32 33 34 32 32 32 33 34 34 34 34 34 35 36 37 37 38 39 39 40 40 40 41 41 42 42 43 43 44 45 45 45
Wind_Direction
248 247 246 245 245 245 243 239 239 241 242 241 241 243 240 236 235 234 234 231 230 231 230 230 231 232 234 233 236 238 240 245 253 259 263 272 279 279 279 283 287 295 307
249 247 246 245 244 244 243 241 240 240 241 241 241 243 242 239 237 236 235 234 235 234 233 233 235 239 241 241 241 242 244 246 253 257 259 262 268 270 275 277 281 290 299
248 246 245 245 244 243 243 242 241 241 241 242 241 242 243 242 239 237 236 236 237 237 237 238 240 243 244 244 244 245 246 249 253 257 262 262 264 266 269 274 278 285 291
249 246 245 245 244 243 242 242 241 240 241 242 241 242 243 243 241 238 237 238 239 240 242 243 244 244 244 245 247 247 247 250 254 258 263 266 266 266 268 272 277 282 286
249 246 245 244 244 243 243 241 240 239 240 242 243 241 243 242 242 240 238 240 240 241 243 245 245 244 243 245 248 248 248 251 255 258 261 265 267 267 268 270 273 278 282
249 246 245 244 243 243 242 241 240 240 240 241 243 242 243 242 240 240 239 240 240 241 242 244 245 243 242 245 248 249 250 252 256 259 262 265 267 267 268 270 272 274 278
250 248 246 245 243 243 242 240 239 239 239 239 242 242 243 244 242 241 239 240 241 241 242 243 244 243 243 246 248 250 250 252 255 258 261 263 265 267 267 270 272 274 277
251 249 247 245 243 243 242 241 239 239 239 239 240 242 242 243 243 243 241 239 241 241 242 243 244 244 245 247 250 252 251 251 253 257 260 262 264 267 268 270 273 276 277
250 248 247 244 243 242 241 240 239 238 238 239 240 241 242 242 242 242 242 242 241 241 242 243 244 245 247 249 251 252 251 250 251 255 258 260 262 265 268 269 271 274 276
251 249 246 244 242 241 240 239 239 239 238 238 239 240 241 241 242 243 244 243 243 242 242 243 244 246 247 249 252 252 250 249 251 255 257 259 261 263 267 270 271 274 276
252 249 247 245 242 240 239 238 237 238 237 237 238 239 241 242 242 243 243 243 243 244 243 243 245 246 247 249 251 251 250 250 252 255 257 259 261 263 265 268 270 272 275
252 248 246 245 243 240 238 237 236 237 237 237 238 238 240 241 241 242 242 242 243 244 245 244 245 246 248 249 250 251 252 251 253 256 258 259 261 263 264 266 268 270 273
253 249 245 244 242 239 237 236 235 236 237 236 237 238 239 240 240 241 241 241 242 243 244 245 247 247 248 249 250 251 252 253 254 256 258 259 261 262 264 266 268 270 272
253 249 246 244 241 239 236 236 235 235 237 237 237 239 239 239 240 240 241 241 242 243 243 245 247 249 249 248 248 250 253 254 255 256 258 260 260 262 264 265 268 270 271
254 250 246 243 241 237 234 233 234 234 235 237 237 238 239 239 239 240 241 242 242 243 244 244 246 248 248 247 248 250 252 254 255 256 258 259 260 262 263 265 267 269 271
256 252 246 243 240 237 234 233 233 234 236 237 237 237 238 238 238 239 241 243 242 242 244 243 244 247 247 247 249 250 251 253 255 256 257 259 260 262 263 264 266 268 271
258 254 248 242 240 237 235 232 232 233 234 235 237 236 237 238 238 240 240 242 242 242 243 245 246 247 247 247 248 249 251 252 254 256 257 259 261 262 262 264 265 267 269
261 254 249 243 240 237 234 232 231 232 233 234 237 237 237 237 238 240 240 241 242 242 244 244 246 247 246 248 249 250 252 252 253 256 258 260 262 262 262 263 266 267 269
262 255 251 244 241 237 234 233 231 231 233 234 237 238 238 238 239 241 240 241 241 242 243 244 246 246 246 248 250 251 252 252 254 256 258 260 261 262 262 263 266 268 269
262 256 251 245 240 238 236 235 233 233 234 235 237 238 239 241 239 239 239 239 239 241 243 244 245 246 247 248 250 251 253 254 255 257 258 260 261 261 262 263 266 268 270
263 258 254 247 242 241 238 236 234 233 234 235 236 238 239 240 237 238 239 240 240 241 244 246 247 248 249 249 250 251 254 255 256 257 259 261 261 262 263 265 266 269 270
265 259 258 251 246 245 241 236 235 234 235 236 237 237 238 240 239 239 240 242 243 243 244 247 248 250 250 251 252 253 256 258 258 259 261 262 263 263 264 266 267 269 271
265 259 258 254 247 244 240 238 238 236 236 236 236 236 238 239 241 242 242 244 246 246 248 249 251 252 253 253 253 255 258 260 262 262 263 264 264 265 266 267 268 270 272
269 262 258 255 249 245 239 237 237 237 238 238 236 236 238 238 240 242 244 246 248 250 251 253 253 254 256 256 256 258 259 261 263 264 265 265 265 266 267 268 269 270 272
274 267 263 259 251 247 241 238 238 238 238 240 238 237 237 237 240 244 247 248 249 251 253 254 255 256 258 258 259 260 261 262 263 265 266 266 266 266 267 269 270 271 272
278 271 265 263 257 250 244 241 242 240 239 239 238 237 237 239 242 245 247 249 250 252 254 254 256 257 258 260 260 261 262 264 265 266 266 267 267 267 268 270 270 271 271
Height
5847 5848 5849 5850 5851 5852 5853 5854 5855 5855 5856 5857 5858 5858 5859 5859 5860 5861 5861 5861 5862 5862 5863 5863 5863 5864 5864 5864 5864 5864 5864 5864 5863 5863 5863 5862 5862 5862 5861 5861 5861 5860 5860
5842 5844 5845 5846 5847 5848 5850 5851 5852 5853 5854 5855 5856 5856 5857 5858 5858 5859 5859 5860 5860 5861 5861 5862 5862 5862 5863 5863 5863 5863 5863 5863 5862 5862 5862 5861 5861 5861 5860 5860 5860 5859 5859
5837 5839 5840 5842 5843 5844 5846 5847 5849 5850 5851 5852 5853 5854 5854 5855 5856 5857 5857 5858 5859 5859 5860 5860 5861 5861 5861 5862 5862 5862 5861 5861 5861 5861 5861 5860 5860 5859 5859 5859 5859 5858 5858
5831 5833 5835 5836 5838 5839 5841 5843 5844 5846 5847 5848 5849 5851 5852 5853 5854 5854 5855 5856 5857 5857 5858 5858 5859 5859 5860 5860 5860 5860 5860 5860 5860 5859 5859 5859 5859 5858 5858 5858 5857 5857 5857
5825 5827 5829 5831 5832 5834 5836 5838 5840 5842 5843 5845 5846 5847 5848 5849 5850 5851 5852 5853 5854 5855 5855 5856 5856 5857 5857 5858 5858 5858 5858 5858 5858 5858 5858 5857 5857 5857 5856 5856 5856 5856 5855
5818 5820 5822 5824 5826 5828 5830 5832 5834 5836 5838 5840 5841 5843 5844 5846 5847 5848 5849 5850 5851 5852 5853 5853 5854 5854 5855 5855 5856 5856 5856 5856 5856 5856 5856 5855 5855 5855 5855 5854 5854 5854 5854
5810 5812 5815 5817 5819 5821 5824 5826 5829 5831 5833 5835 5837 5838 5840 5841 5843 5844 5845 5847 5848 5849 5849 5850 5851 5852 5852 5853 5853 5854 5854 5854 5854 5854 5854 5853 5853 5853 5853 5853 5852 5852 5852
5803 5805 5807 5809 5811 5814 5817 5819 5822 5825 5827 5829 5831 5833 5835 5837 5838 5840 5841 5843 5844 5845 5846 5847 5847 5848 5849 5850 5850 5851 5851 5851 5851 5851 5851 5851 5851 5851 5850 5850 5850 5850 5849
5794 5796 5798 5801 5803 5806 5809 5812 5815 5818 5820 5823 5826 5828 5829 5831 5833 5835 5836 5838 5839 5840 5842 5843 5844 5844 5845 5846 5847 5847 5847 5848 5848 5848 5848 5848 5848 5848 5848 5848 5847 5847 5847
5786 5788 5790 5792 5795 5798 5801 5804 5807 5810 5813 5816 5819 5821 5823 5825 5828 5830 5831 5833 5834 5836 5837 5838 5839 5840 5841 5842 5843 5843 5844 5844 5844 5845 5845 5845 5845 5845 5845 5845 5845 5844 5844
5777 5779 5781 5783 5786 5789 5792 5796 5799 5803 5806 5809 5812 5815 5817 5819 5821 5824 5826 5827 5829 5831 5832 5833 5835 5836 5837 5838 5838 5839 5839 5840 5841 5841 5841 5841 5841 5841 5841 5841 5841 5841 5841
5769 5770 5772 5774 5777 5780 5784 5787 5791 5794 5798 5801 5804 5807 5810 5812 5815 5817 5819 5821 5823 5825 5827 5828 5829 5831 5832 5833 5833 5834 5835 5836 5836 5837 5837 5837 5837 5837 5837 5837 5837 5837 5837
5760 5761 5763 5766 5768 5771 5775 5778 5782 5786 5790 5793 5796 5800 5803 5805 5808 5810 5813 5815 5817 5819 5821 5822 5824 5825 5826 5827 5828 5829 5830 5831 5831 5832 5832 5833 5833 5833 5833 5833 5833 5833 5832
5751 5753 5755 5757 5759 5762 5766 5770 5773 5778 5782 5785 5789 5792 5795 5798 5801 5803 5805 5808 5810 5812 5814 5816 5817 5819 5820 5821 5822 5823 5824 5825 5826 5827 5827 5827 5828 5828 5828 5828 5828 5828 5828
5744 5745 5746 5748 5750 5753 5757 5761 5765 5770 5773 5777 5781 5784 5787 5790 5793 5795 5798 5800 5803 5805 5807 5809 5810 5812 5813 5814 5816 5817 5818 5820 5820 5821 5822 5822 5822 5822 5822 5822 5822 5822 5822
5736 5737 5738 5740 5742 5745 5749 5753 5758 5761 5765 5769 5772 5776 5780 5783 5785 5788 5790 5793 5795 5798 5800 5801 5803 5805 5806 5808 5809 5811 5812 5813 5814 5815 5816 5816 5816 5817 5817 5817 5817 5817 5816
5729 5729 5731 5732 5734 5737 5741 5745 5749 5753 5757 5760 5764 5768 5771 5774 5777 5780 5783 5785 5788 5790 5792 5794 5796 5797 5799 5800 5802 5804 5805 5807 5808 5809 5809 5810 5810 5810 5810 5810 5810 5810 5810
5722 5722 5723 5725 5727 5730 5733 5737 5741 5745 5749 5753 5756 5760 5763 5766 5769 5772 5775 5777 5780 5782 5784 5786 5788 5790 5792 5793 5795 5797 5798 5799 5801 5802 5803 5803 5803 5804 5804 5804 5804 5804 5804
5715 5716 5716 5718 5719 5722 5726 5729 5732 5737 5741 5745 5748 5751 5755 5758 5761 5764 5767 5769 5772 5774 5776 5779 5781 5782 5784 5786 5788 5789 5791 5792 5793 5794 5795 5796 5796 5796 5797 5797 5797 5797 5796
5708 5709 5709 5710 5712 5714 5717 5721 5724 5728 5732 5736 5739 5743 5747 5750 5753 5756 5759 5761 5764 5766 5769 5771 5773 5775 5777 5779 5780 5782 5783 5784 5785 5786 5787 5788 5788 5789 5789 5789 5789 5789 5789
5702 5702 5703 5703 5705 5707 5710 5713 5717 5721 5724 5728 5731 5734 5738 5741 5744 5748 5750 5753 5756 5759 5761 5763 5765 5767 5769 5771 5773 5774 5775 5776 5777 5778 5779 5780 5780 5780 5781 5781 5781 5781 5780
5695 5696 5696 5697 5698 5700 5703 5706 5709 5713 5716 5719 5723 5727 5730 5733 5736 5739 5742 5745 5748 5751 5753 5756 5758 5760 5761 5763 5765 5766 5767 5769 5769 5770 5771 5772 5772 5772 5772 5772 5772 5772 5772
5689 5690 5690 5691 5692 5694 5696 5699 5702 5705 5708 5711 5716 5719 5722 5726 5729 5732 5735 5738 5740 5743 5745 5748 5750 5752 5753 5754 5756 5758 5759 5760 5761 5762 5762 5763 5763 5763 5763 5763 5763 5763 5762
5684 5684 5684 5685 5686 5688 5690 5692 5695 5699 5702 5705 5708 5711 5715 5719 5722 5725 5728 5730 5733 5735 5737 5739 5741 5743 5744 5746 5747 5748 5749 5750 5751 5752 5753 5753 5753 5753 5753 5753 5753 5752 5752
5678 5678 5679 5679 5680 5682 5683 5686 5689 5692 5695 5697 5701 5704 5707 5711 5714 5717 5720 5722 5725 5727 5729 5731 5732 5734 5735 5736 5737 5738 5739 5740 5741 5742 5743 5743 5743 5743 5743 5742 5742 5742 5741
5674 5674 5674 5674 5675 5676 5677 5679 5682 5685 5688 5691 5694 5698 5701 5704 5707 5709 5712 5714 5716 5718 5720 5722 5723 5725 5726 5727 5728 5729 5729 5730 5731 5731 5732 5732 5733 5733 5732 5731 5731 5730 5729